Live-Position
3D-Globus wird geladen...
Über Starlink 33750
Group: 3 satellites
Beschreibung wird geladen...
Nächste Überflüge
Passes for default location (London). Set your location on the main map for personalized predictions.
Höhenverlauf
Loading altitude history...
No altitude history available
Zweizeiliger Elementsatz
1 63513U 25071W 26125.28603384 .00049712 00000-0 15989-2 0 9990
2 63513 53.1595 237.0992 0001568 98.5256 261.5923 15.31783886 61415
Epoch: 5. Mai 2026 •
Age: 5 hours
Aktueller Status
Höhe 470.3 km
Geschwindigkeit 7.63 km/s
Subsatellitenpunkt 8.55°N,
1.75°E
Startdatum 7. Apr. 2025
Alter 1 years
Typ internet
Startgruppe
Falcon 9 •
Group 11-11 •
27 satellites
Starlink 33828
63493
Starlink 33819 63494
Starlink 33845 63495
Starlink 33829 63496
Starlink 33815 63497
Starlink 33833 63498
Starlink 33534 63499
Starlink 33838 63500
Starlink 33837 63501
Starlink 33818 63502
Starlink 33583 63503
Starlink 33811 63504
Starlink 33825 63505
Starlink 33792 63506
Starlink 33843 63507
Starlink 33809 63508
Starlink 33678 63509
Starlink 33764 63510
Starlink 33804 63511
Starlink 33751 63512
...and 6 more
Technische Details
Klassifizierung Payload
Masse 575.00 kg
Trockenmasse 530.00 kg
Gesamtmasse 575.00 kg
Länge 0.30 m
Durchmesser 4.10 m
Spannweite 29.00 m
Form Box + pan
Hersteller SPXS
Bus-Typ Starlink V2MO
Phasenstatus In Orbit
Besitzer/Staat SPXS/US
Most Searched
Loading...